Weather History for Tarboro, NC

Change the Weather History Date:

Wednesday, May 15, 2013

  Actual Average Record
Temperature  
Mean Temperature 71 °F -  
Max Temperature 88 °F 80 °F 94 °F (1956)
Min Temperature 54 °F 56 °F 44 °F (1984)
Cooling Degree Days 6    
Growing Degree Days 21 (Base 50)    
Moisture  
Dew Point 52 °F    
Average Humidity 50    
Maximum Humidity 70    
Minimum Humidity 32    
Precipitation  
Precipitation 0.00 in - - ()
Sea Level Pressure  
Sea Level Pressure 29.99 in    
Wind  
Wind Speed 7 mph (SSW)    
Max Wind Speed 15 mph    
Max Gust Speed 22 mph    
Visibility 10 miles    
Events      
Averages and records for this station are not official NWS values.
T = Trace of Precipitation, MM = Missing Value Source: NWS Daily Summary

Daily Weather History Graph

Daily Weather History Graph

Search for Another Location

Airport:

Trip Planner

Search our weather history database for the weather conditions in past years. The results will help you decide how hot, cold, wet, or windy it might be!

Date:

Astronomy

May. 15, 2013 Rise Set
Actual Time 6:04 AM EDT 8:09 PM EDT
Civil Twilight 5:35 AM EDT 8:37 PM EDT
Nautical Twilight 5:01 AM EDT 9:12 PM EDT
Astronomical Twilight 4:23 AM EDT 9:50 PM EDT
Moon 10:36 AM EDT (5/15) No Moon Set
Length of Visible Light 15h 01m
Length of Day
14h 04m
Waxing Crescent, 26% of the Moon is Illuminated
May 15
Waxing Crescent
May 18
First Quarter
May 25
Full
May 31
Last Quarter
Jun 8
New

Hourly Weather History & Observations

Time (EDT) Temp. Heat Index Dew Point Humidity Pressure Visibility Wind Dir Wind Speed Gust Speed Precip Events Conditions
12:15 AM 57.4 °F - 44.4 °F 62% 30.11 in 10.0 mi South 4.6 mph - N/A   Scattered Clouds
12:35 AM 57.2 °F - 44.8 °F 63% 30.11 in 10.0 mi SSE 4.6 mph - N/A   Scattered Clouds
12:55 AM 56.5 °F - 45.1 °F 66% 30.10 in 10.0 mi SSE 3.5 mph - N/A   Clear
1:15 AM 55.9 °F - 45.1 °F 67% 30.10 in 10.0 mi SSE 3.5 mph - N/A   Scattered Clouds
1:35 AM 55.8 °F - 45.3 °F 68% 30.11 in 10.0 mi SSE 3.5 mph - N/A   Mostly Cloudy
1:55 AM 55.6 °F - 45.5 °F 69% 30.11 in 10.0 mi SSE 3.5 mph - N/A   Overcast
2:15 AM 55.4 °F - 45.5 °F 69% 30.10 in 10.0 mi South 3.5 mph - N/A   Overcast
2:35 AM 55.2 °F - 45.1 °F 69% 30.10 in 10.0 mi South 5.8 mph - N/A   Scattered Clouds
2:55 AM 54.9 °F - 45.0 °F 69% 30.09 in 10.0 mi South 4.6 mph - N/A   Clear
3:15 AM 54.7 °F - 45.0 °F 70% 30.08 in 10.0 mi South 6.9 mph - N/A   Clear
3:35 AM 55.2 °F - 45.1 °F 69% 30.08 in 10.0 mi South 5.8 mph - N/A   Clear
3:55 AM 55.9 °F - 45.7 °F 68% 30.08 in 10.0 mi South 6.9 mph - N/A   Mostly Cloudy
4:15 AM 56.7 °F - 46.0 °F 68% 30.07 in 10.0 mi South 6.9 mph - N/A   Overcast
4:35 AM 57.4 °F - 46.6 °F 67% 30.07 in 10.0 mi SSW 6.9 mph - N/A   Mostly Cloudy
4:55 AM 58.5 °F - 47.1 °F 66% 30.07 in 10.0 mi SSW 8.1 mph - N/A   Overcast
5:15 AM 60.3 °F - 47.5 °F 63% 30.06 in 10.0 mi SSW 10.4 mph 16.1 mph N/A   Overcast
5:35 AM 61.2 °F - 47.5 °F 61% 30.06 in 10.0 mi SSW 9.2 mph 16.1 mph N/A   Overcast
5:55 AM 61.7 °F - 47.3 °F 59% 30.06 in 10.0 mi SSW 9.2 mph 19.6 mph N/A   Overcast
6:15 AM 61.7 °F - 47.3 °F 59% 30.06 in 10.0 mi SSW 6.9 mph - N/A   Overcast
6:35 AM 61.2 °F - 47.3 °F 60% 30.06 in 10.0 mi SSW 9.2 mph - N/A   Mostly Cloudy
6:55 AM 60.4 °F - 47.5 °F 62% 30.07 in 10.0 mi SSW 6.9 mph - N/A   Scattered Clouds
7:15 AM 60.4 °F - 47.7 °F 63% 30.07 in 10.0 mi SSW 8.1 mph - N/A   Scattered Clouds
7:35 AM 61.2 °F - 48.0 °F 62% 30.07 in 10.0 mi SSW 8.1 mph - N/A   Scattered Clouds
7:55 AM 62.2 °F - 48.2 °F 60% 30.07 in 10.0 mi SW 10.4 mph - N/A   Clear
8:15 AM 63.7 °F - 48.4 °F 57% 30.06 in 10.0 mi SW 10.4 mph 18.4 mph N/A   Clear
8:35 AM 65.3 °F - 48.4 °F 54% 30.06 in 10.0 mi SW 10.4 mph 16.1 mph N/A   Clear
8:55 AM 66.6 °F - 49.1 °F 53% 30.06 in 10.0 mi WSW 10.4 mph 17.3 mph N/A   Clear
9:15 AM 67.5 °F - 49.5 °F 52% 30.05 in 10.0 mi SW 8.1 mph - N/A   Clear
9:35 AM 68.9 °F - 50.2 °F 51% 30.05 in 10.0 mi SW 6.9 mph - N/A   Clear
9:55 AM 70.3 °F - 51.1 °F 50% 30.04 in 10.0 mi SW 9.2 mph - N/A   Clear
10:15 AM 71.8 °F - 51.8 °F 49% 30.04 in 10.0 mi SW 9.2 mph - N/A   Clear
10:35 AM 73.0 °F - 52.2 °F 48% 30.04 in 10.0 mi SSW 8.1 mph - N/A   Clear
11:15 AM 75.7 °F - 53.2 °F 45% 30.03 in 10.0 mi SW 8.1 mph - N/A   Clear
11:35 AM 77.2 °F - 53.6 °F 44% 30.03 in 10.0 mi SW 8.1 mph - N/A   Clear
11:55 AM 78.4 °F - 54.1 °F 43% 30.03 in 10.0 mi SSW 5.8 mph - N/A   Clear
12:15 PM 79.7 °F - 55.0 °F 43% 30.02 in 10.0 mi SSW 8.1 mph - N/A   Clear
12:35 PM 81.0 °F 80.6 °F 54.7 °F 40% 30.01 in 10.0 mi SW 5.8 mph - N/A   Clear
12:55 PM 82.4 °F 81.7 °F 54.9 °F 39% 30.00 in 10.0 mi WSW 11.5 mph - N/A   Clear
1:15 PM 83.1 °F 82.1 °F 54.7 °F 37% 30.00 in 10.0 mi SW 10.4 mph 16.1 mph N/A   Clear
1:35 PM 84.0 °F 82.7 °F 54.7 °F 36% 29.98 in 10.0 mi SW 10.4 mph - N/A   Clear
1:55 PM 85.3 °F 84.1 °F 55.9 °F 37% 29.97 in 10.0 mi SW 11.5 mph 18.4 mph N/A   Clear
2:15 PM 85.6 °F 84.1 °F 55.2 °F 35% 29.96 in 10.0 mi SW 11.5 mph 17.3 mph N/A   Clear
2:35 PM 86.4 °F 84.7 °F 55.0 °F 34% 29.95 in 10.0 mi WSW 12.7 mph 19.6 mph N/A   Clear
2:55 PM 86.5 °F 84.9 °F 54.9 °F 34% 29.95 in 10.0 mi SSW 10.4 mph - N/A   Clear
3:15 PM 86.9 °F 85.3 °F 55.0 °F 34% 29.94 in 10.0 mi WSW 10.4 mph 17.3 mph N/A   Clear
3:35 PM 87.6 °F 85.9 °F 55.6 °F 33% 29.93 in 10.0 mi SW 11.5 mph 18.4 mph N/A   Clear
3:55 PM 87.8 °F 86.3 °F 55.8 °F 34% 29.93 in 10.0 mi SW 13.8 mph 17.3 mph N/A   Clear
4:15 PM 88.2 °F 86.5 °F 55.9 °F 33% 29.92 in 10.0 mi SW 10.4 mph 18.4 mph N/A   Clear
4:35 PM 88.3 °F 86.7 °F 55.8 °F 33% 29.91 in 10.0 mi SSW 15.0 mph 21.9 mph N/A   Clear
4:55 PM 88.3 °F 86.5 °F 55.4 °F 32% 29.90 in 10.0 mi SSW 10.4 mph 18.4 mph N/A   Clear
5:15 PM 88.3 °F 86.7 °F 55.9 °F 33% 29.90 in 10.0 mi SSW 11.5 mph - N/A   Clear
5:35 PM 88.2 °F 86.5 °F 55.4 °F 33% 29.90 in 10.0 mi SSW 15.0 mph 19.6 mph N/A   Clear
5:55 PM 87.8 °F 86.3 °F 56.3 °F 34% 29.89 in 10.0 mi SW 8.1 mph - N/A   Clear
6:15 PM 87.6 °F 86.3 °F 56.8 °F 35% 29.88 in 10.0 mi SW 8.1 mph - N/A   Clear
6:35 PM 86.9 °F 85.5 °F 56.5 °F 35% 29.88 in 10.0 mi SW 11.5 mph - N/A   Clear
6:55 PM 86.2 °F 84.9 °F 56.1 °F 36% 29.87 in 10.0 mi SSW 9.2 mph - N/A   Clear
7:15 PM 85.5 °F 84.3 °F 56.5 °F 37% 29.88 in 10.0 mi SW 6.9 mph - N/A   Clear
7:35 PM 84.4 °F 83.4 °F 56.5 °F 38% 29.88 in 10.0 mi SW 5.8 mph - N/A   Clear
7:55 PM 82.6 °F 82.1 °F 56.7 °F 41% 29.88 in 10.0 mi SW 3.5 mph - N/A   Clear
8:15 PM 81.0 °F 81.0 °F 57.4 °F 44% 29.88 in 10.0 mi SSW 6.9 mph - N/A   Clear
8:35 PM 79.9 °F - 57.7 °F 47% 29.88 in 10.0 mi SSW 4.6 mph - N/A   Clear
8:55 PM 79.3 °F - 57.9 °F 48% 29.89 in 10.0 mi SSW 6.9 mph - N/A   Clear
9:15 PM 78.8 °F - 58.1 °F 49% 29.90 in 10.0 mi SW 6.9 mph - N/A   Clear
9:35 PM 78.8 °F - 58.1 °F 49% 29.90 in 10.0 mi SSW 8.1 mph - N/A   Clear
9:55 PM 78.6 °F - 58.1 °F 49% 29.90 in 10.0 mi SW 10.4 mph - N/A   Clear
10:15 PM 78.4 °F - 58.1 °F 50% 29.91 in 10.0 mi SW 8.1 mph - N/A   Clear
10:35 PM 77.7 °F - 58.3 °F 51% 29.91 in 10.0 mi SW 9.2 mph - N/A   Clear
10:55 PM 77.2 °F - 58.3 °F 52% 29.91 in 10.0 mi SW 6.9 mph - N/A   Clear
11:15 PM 76.6 °F - 58.5 °F 53% 29.90 in 10.0 mi SSW 9.2 mph - N/A   Clear
11:35 PM 76.1 °F - 58.6 °F 55% 29.90 in 10.0 mi SW 9.2 mph - N/A   Clear
11:55 PM 75.7 °F - 58.8 °F 56% 29.90 in 10.0 mi SW 6.9 mph - N/A   Clear